Stations météo

réclame
Mon MeteoGroup
Estepona, Espagne (8463): Température de l'air & dewpoint: 11.01.2019 01:00:00 - 17.01.2019 01:00:00 (CET)Estepona, Espagne (8463): Vitesse du vent & gusts: 11.01.2019 01:00:00 - 17.01.2019 01:00:00 (CET)Estepona, Espagne (8463): Direction du vent: 11.01.2019 01:00:00 - 17.01.2019 01:00:00 (CET)Estepona, Espagne (8463): reduced air pressure: 11.01.2019 01:00:00 - 17.01.2019 01:00:00 (CET)Estepona, Espagne (8463): visibility: 11.01.2019 01:00:00 - 17.01.2019 01:00:00 (CET)Estepona, Espagne (8463): Ensoleillement: 11.01.2019 01:00:00 - 17.01.2019 01:00:00 (CET)Estepona, Espagne (8463): Quantités de précipitations: 11.01.2019 01:00:00 - 17.01.2019 01:00:00 (CET)
Date & Time tt [°C] td [°C] ff [km/h] ff [knt] fx [km/h] fx [knt] dd ppp [hPa] vv [km] sd [min] rr [mm]
17.01.2019 01:00:00 13,4 6,1 10 5 19 10 WSW 1020,1 20 0 -
17.01.2019 00:00:00 13,9 6,1 8 4 24 13 W 1020,2 20 0 0,0
16.01.2019 23:00:00 14,0 5,9 8 5 15 8 WSW 1020,2 20 0 0,0
16.01.2019 22:00:00 14,2 4,5 5 3 20 11 W 1020,1 20 0 0,0
16.01.2019 21:00:00 13,8 5,6 6 4 20 11 W 1020,0 20 0 0,0
16.01.2019 20:00:00 14,0 6,4 10 6 21 11 W 1019,8 20 0 0,0
16.01.2019 19:00:00 14,4 5,8 9 5 24 13 W 1019,5 20 0 -
16.01.2019 18:00:00 15,1 5,8 14 8 37 20 WSW 1019,3 20 16 0,0
16.01.2019 17:00:00 16,5 6,1 18 10 33 18 WSW 1019,0 20 0 0,0
16.01.2019 16:00:00 16,9 8,5 18 10 32 18 SW 1019,2 20 0 0,0
16.01.2019 15:00:00 17,0 8,4 17 9 31 17 SW 1019,5 20 0 0,0
16.01.2019 14:00:00 18,2 8,5 17 9 29 16 SW 1020,2 20 0 0,0
16.01.2019 13:00:00 16,9 6,1 18 10 29 16 WSW 1021,0 20 6 -
16.01.2019 12:00:00 16,0 6,1 11 6 21 11 WSW 1022,2 20 53 0,0
16.01.2019 11:00:00 14,9 7,7 3 1 6 3 S 1022,3 20 43 0,0
16.01.2019 10:00:00 11,8 7,7 2 1 4 2 E 1022,0 20 0 0,0
16.01.2019 09:00:00 9,7 6,2 2 1 6 3 NNW 1021,8 19 0 0,0
16.01.2019 08:00:00 9,5 5,6 1 1 6 3 E 1021,5 20 0 0,0
16.01.2019 07:00:00 10,5 6,4 4 2 6 4 NE 1021,2 20 0 -
16.01.2019 06:00:00 11,9 7,0 4 2 14 7 WNW 1021,3 20 0 0,0
16.01.2019 05:00:00 12,5 8,3 7 4 12 7 WNW 1021,8 20 0 0,0
16.01.2019 04:00:00 12,5 8,5 3 1 7 4 WNW 1022,3 20 0 0,0
16.01.2019 03:00:00 12,0 8,7 3 2 7 4 NNW 1022,3 20 0 0,0
16.01.2019 02:00:00 12,0 8,7 2 1 6 3 WNW 1022,5 20 0 0,0
16.01.2019 01:00:00 12,1 8,8 2 1 6 3 WNW 1022,8 20 0 -
16.01.2019 00:00:00 12,1 8,5 2 1 4 2 W 1023,0 16 0 0,0
15.01.2019 23:00:00 12,9 9,2 1 1 5 3 NW 1023,2 18 0 0,0
15.01.2019 22:00:00 13,2 9,3 1 1 5 3 WNW 1022,8 17 0 0,0
15.01.2019 21:00:00 - - - - - - - - - - -
15.01.2019 20:00:00 14,5 9,3 3 2 6 4 ENE 1022,4 18 0 0,0
15.01.2019 19:00:00 15,2 9,0 5 3 8 4 ESE 1022,0 20 9 -
15.01.2019 18:00:00 16,5 9,7 4 2 10 6 SSE 1021,7 19 34 0,0
15.01.2019 17:00:00 17,0 9,2 7 4 13 7 ESE 1021,5 20 5 0,0
15.01.2019 16:00:00 17,7 9,0 7 4 14 7 ESE 1021,5 20 0 0,0
15.01.2019 15:00:00 18,6 7,7 6 4 11 6 ESE 1021,6 20 0 0,0
15.01.2019 14:00:00 18,7 5,9 4 2 8 4 SE 1022,1 20 0 0,0
15.01.2019 13:00:00 - - - - - - - - - - -
15.01.2019 12:00:00 17,6 4,8 5 3 8 5 ESE 1023,3 20 59 0,0
15.01.2019 11:00:00 15,0 0,9 3 1 5 3 SW 1023,1 20 44 0,0
15.01.2019 10:00:00 13,5 4,6 1 1 9 5 S 1022,2 20 0 0,0
15.01.2019 09:00:00 10,3 2,9 4 2 7 4 W 1021,4 20 0 0,0
15.01.2019 08:00:00 9,3 1,3 3 2 6 3 ESE 1020,7 20 0 0,0
15.01.2019 07:00:00 9,1 0,9 3 2 6 4 W 1020,0 20 0 -
15.01.2019 06:00:00 9,3 0,4 2 1 6 3 SW 1019,6 20 0 0,0
15.01.2019 05:00:00 9,3 0,4 3 1 4 2 WNW 1019,7 20 0 0,0
15.01.2019 04:00:00 9,6 1,1 2 1 5 3 NNW 1020,0 20 0 0,0
15.01.2019 03:00:00 9,9 1,1 2 1 6 3 NNE 1019,8 20 0 0,0
15.01.2019 02:00:00 9,7 1,1 3 2 5 3 E 1019,7 20 0 0,0
15.01.2019 01:00:00 10,1 0,6 2 1 5 3 WNW 1019,7 20 0 -
15.01.2019 00:00:00 10,7 1,7 4 2 6 4 N 1020,1 20 0 0,0
14.01.2019 23:00:00 11,1 1,3 3 2 5 3 ENE 1020,0 20 0 0,0
14.01.2019 22:00:00 12,1 0,9 2 1 11 6 E 1019,9 20 0 0,0
14.01.2019 21:00:00 12,4 1,9 3 2 8 4 W 1019,8 19 0 0,0
14.01.2019 20:00:00 14,2 1,7 3 2 8 5 WNW 1019,7 20 0 0,0
14.01.2019 19:00:00 15,3 2,5 2 1 11 6 WNW 1019,5 20 9 -
14.01.2019 18:00:00 18,6 2,9 3 2 21 12 WNW 1019,4 20 46 0,0
14.01.2019 17:00:00 20,6 0,9 11 6 31 17 W 1019,2 20 13 0,0
14.01.2019 16:00:00 20,0 1,9 9 5 19 10 W 1019,4 20 0 0,0
14.01.2019 15:00:00 18,5 4,6 5 3 13 7 E 1020,1 20 0 0,0
14.01.2019 14:00:00 18,1 6,8 11 6 19 10 E 1020,9 20 0 0,0
14.01.2019 13:00:00 - - - - - - - - - - -
14.01.2019 12:00:00 14,8 6,4 4 2 8 4 SW 1023,2 20 46 0,0
14.01.2019 11:00:00 13,9 6,1 1 1 6 3 S 1023,6 20 43 0,0
14.01.2019 10:00:00 10,7 7,0 3 1 5 3 SW 1023,4 20 0 0,0
14.01.2019 09:00:00 8,5 4,8 2 1 7 4 NW 1023,4 20 0 0,0
14.01.2019 08:00:00 7,8 3,6 3 2 9 5 N 1023,5 20 0 0,0
14.01.2019 07:00:00 7,0 3,9 0 0 5 3 N 1023,3 20 0 -
14.01.2019 06:00:00 6,9 3,9 3 2 5 3 W 1023,3 20 0 0,0
14.01.2019 05:00:00 7,2 4,3 1 1 5 3 NNW 1023,8 20 0 0,0
14.01.2019 04:00:00 8,2 5,3 1 1 6 3 WNW 1024,4 20 0 0,0
14.01.2019 03:00:00 8,5 5,6 2 1 10 5 WNW 1024,6 20 0 0,0
14.01.2019 02:00:00 8,8 5,8 4 2 10 5 N 1024,9 20 0 0,0
14.01.2019 01:00:00 8,4 4,8 3 2 5 3 NNW 1025,4 20 0 -
14.01.2019 00:00:00 9,2 4,6 2 1 9 5 WSW 1026,0 20 0 0,0
13.01.2019 23:00:00 9,9 5,6 4 2 8 5 N 1026,3 20 0 0,0
13.01.2019 22:00:00 9,5 5,3 3 2 5 3 N 1026,3 20 0 0,0
13.01.2019 21:00:00 10,4 5,6 2 1 5 3 N 1026,2 20 0 0,0
13.01.2019 20:00:00 11,6 6,1 4 2 7 4 NNW 1026,5 19 0 0,0
13.01.2019 19:00:00 12,1 6,1 3 2 10 5 W 1026,6 20 8 -
13.01.2019 18:00:00 14,2 6,5 5 3 12 6 SW 1026,7 20 46 0,0
13.01.2019 17:00:00 15,3 7,1 7 4 13 7 SW 1026,6 20 13 0,0
13.01.2019 16:00:00 15,9 6,5 9 5 13 7 SW 1027,1 20 0 0,0
13.01.2019 15:00:00 16,7 7,1 5 3 11 6 SSW 1027,6 20 0 0,0
13.01.2019 14:00:00 17,4 7,4 6 3 11 6 SSW 1028,2 20 0 0,0
13.01.2019 13:00:00 - - - - - - - - - - -
13.01.2019 12:00:00 15,0 7,3 4 2 9 5 SE 1029,9 20 42 0,0
13.01.2019 11:00:00 14,7 7,0 5 3 13 7 E 1030,2 20 44 0,0
13.01.2019 10:00:00 12,0 6,1 5 3 11 6 NE 1029,8 20 0 0,0
13.01.2019 09:00:00 9,5 4,5 2 1 8 5 NW 1029,3 20 0 0,0
13.01.2019 08:00:00 9,4 3,6 3 2 7 4 NW 1029,4 20 0 0,0
13.01.2019 07:00:00 9,6 3,0 3 1 8 4 WNW 1029,3 20 0 -
13.01.2019 06:00:00 9,9 2,7 3 1 9 5 NNW 1029,2 20 0 0,0
13.01.2019 05:00:00 9,8 1,3 2 1 11 6 NNW 1029,4 20 0 0,0
13.01.2019 04:00:00 10,2 0,4 3 2 11 6 N 1029,8 20 0 0,0
13.01.2019 03:00:00 10,2 0,2 3 1 14 8 NNW 1029,8 20 0 0,0
13.01.2019 02:00:00 10,3 1,1 6 3 21 11 NNE 1029,6 20 0 0,0
13.01.2019 01:00:00 10,4 2,3 6 3 15 8 NNE 1030,1 20 0 -
13.01.2019 00:00:00 10,6 2,5 8 4 19 11 NNE 1030,5 20 0 0,0
12.01.2019 23:00:00 10,8 2,9 8 4 19 10 NNE 1030,5 20 0 0,0
12.01.2019 22:00:00 11,1 3,2 11 6 24 13 NE 1030,2 20 0 0,0
12.01.2019 21:00:00 11,1 3,4 11 6 21 11 NE 1029,8 20 0 0,0
12.01.2019 20:00:00 - - - - - - - - - - -
12.01.2019 19:00:00 12,9 4,8 16 8 35 19 ENE 1029,4 20 7 -
12.01.2019 18:00:00 13,4 4,8 24 13 36 19 E 1028,8 20 47 0,0
12.01.2019 17:00:00 13,9 4,5 22 12 37 20 E 1028,8 20 8 0,0
12.01.2019 16:00:00 - - - - - - - - - - -
12.01.2019 15:00:00 14,6 5,5 24 13 43 23 ENE 1028,7 20 0 0,0
12.01.2019 14:00:00 14,8 5,3 24 13 41 22 E 1029,2 19 0 0,0
12.01.2019 13:00:00 14,7 5,1 22 12 39 21 E 1029,7 20 3 -
12.01.2019 12:00:00 14,1 5,1 23 12 41 22 ENE 1030,5 19 34 0,0
12.01.2019 11:00:00 14,0 4,8 15 8 34 18 ENE 1030,2 19 32 0,0
12.01.2019 10:00:00 12,5 4,1 10 5 25 13 NE 1029,5 20 0 0,0
12.01.2019 09:00:00 10,8 3,4 12 6 24 13 NE 1028,7 20 0 0,0
12.01.2019 08:00:00 10,9 3,4 11 6 24 13 NE 1028,5 20 0 0,0
12.01.2019 07:00:00 11,0 3,2 11 6 26 14 NE 1028,0 20 0 -
12.01.2019 06:00:00 11,1 3,2 11 6 23 12 NE 1028,0 20 0 0,0
12.01.2019 05:00:00 11,2 3,0 10 6 22 12 NE 1028,0 20 0 0,0
12.01.2019 04:00:00 11,3 3,0 11 6 22 12 NE 1028,1 20 0 0,0
12.01.2019 03:00:00 11,8 3,2 11 6 22 12 NE 1027,9 20 0 0,0
12.01.2019 02:00:00 11,8 3,6 11 6 24 13 NE 1027,8 20 0 0,0
12.01.2019 01:00:00 12,0 3,2 11 6 20 11 NE 1027,8 20 0 -
12.01.2019 00:00:00 11,5 2,9 9 5 20 11 NNE 1028,0 20 0 0,0
11.01.2019 23:00:00 11,7 2,7 10 5 19 11 NNE 1027,8 20 0 0,0
11.01.2019 22:00:00 12,2 2,9 10 6 22 12 NE 1027,4 20 0 0,0
11.01.2019 21:00:00 12,8 3,8 8 4 20 11 ENE 1027,1 20 0 0,0
11.01.2019 20:00:00 13,1 3,4 9 5 26 14 NE 1026,9 20 0 0,0
11.01.2019 19:00:00 13,8 3,6 16 9 29 15 E 1026,5 20 0 -
11.01.2019 18:00:00 13,9 3,9 16 9 29 16 E 1026,2 20 0 0,0
11.01.2019 17:00:00 14,0 4,6 14 8 26 14 E 1025,6 20 0 0,0
11.01.2019 16:00:00 14,2 4,5 16 9 25 14 E 1025,2 20 0 0,0
11.01.2019 15:00:00 14,4 4,3 16 9 29 16 E 1024,9 20 0 0,0
11.01.2019 14:00:00 15,2 5,5 18 10 37 20 E 1024,8 20 0 0,0
11.01.2019 13:00:00 15,2 6,5 22 12 34 19 E 1025,2 20 3 -
11.01.2019 12:00:00 15,1 6,1 19 10 31 17 E 1025,5 20 41 0,0
11.01.2019 11:00:00 15,2 5,9 13 7 28 15 ENE 1025,2 20 27 0,0
11.01.2019 10:00:00 - - - - - - - - - - -
11.01.2019 09:00:00 11,6 5,3 9 5 18 10 NE 1023,3 20 0 0,0
11.01.2019 08:00:00 11,5 5,3 9 5 16 9 NE 1022,7 20 0 0,0
11.01.2019 07:00:00 12,0 5,6 9 5 19 11 NE 1022,1 20 0 -
11.01.2019 06:00:00 12,2 6,1 9 5 20 11 NE 1022,0 5 0 0,0
11.01.2019 05:00:00 12,6 6,4 10 5 21 11 NE 1021,9 3,6 0 0,0
11.01.2019 04:00:00 12,9 6,2 9 5 18 10 NE 1022,0 5 0 0,0
11.01.2019 03:00:00 13,2 6,2 8 4 19 10 NE 1021,8 7 0 0,0
11.01.2019 02:00:00 13,1 6,4 10 5 19 11 NE 1021,6 7 0 0,0
11.01.2019 01:00:00 12,6 6,4 9 5 19 10 NE 1021,6 13 0 -

tt = Température de l'air
td = dewpoint
ff = Vitesse du vent
fx = gusts
dd = Direction du vent
ppp = reduced air pressure
vv = visibility
sd = Ensoleillement
rr = Quantités de précipitations

stations d'obs. à proximité